Tracking 17140 objects as of 1-July-2015
HD Live streaming from Space Station

NAVSTAR 19 (USA 54)

Track NAVSTAR 19 (USA 54) now!
NAVSTAR 19 (USA 54) is classified as:


NORAD ID: 20533
Int'l Code: 1990-025A
Perigee: 20,952.0 km
Apogee: 21,178.1 km
Inclination: 55.4 °
Period: 753.8 minutes
Semi major axis: 27436 km
RCS: 0.6015 m2 (medium)
Launch date: March 26, 1990
Source: United States (US)
PRN:
Your satellite tracking list
Your tracking list is empty





NASA's NSSDC Master Catalog

Two Line Element Set (TLE):
1 20533U 90025A   15180.33489447 -.00000047  00000-0  00000+0 0  9997
2 20533 055.3991 031.7602 0041207 141.0469 179.6074 01.91038165178559

Source of the keplerian elements: AFSPC

N2YO: 240